Location: Berlise
(49.6641°N, 4.1077°E)
Time: 20:10:10
(UTC+00:00)

USA 307 - Pass Details

Date: 27 January 2021
Orbit: 565 x 580 km, 54.0° (Epoch: 26 February)

Event Time Altitude Azimuth Distance (km) Brightness Sun altitude
Exits shadow 06:20:05 11° 261° (W) 1,774 4.9 -10.2°
Maximum altitude 06:24:03 62° 342° (NNW) 639 3.0 -9.6°
Drops below altitude 10° 06:28:16 10° 64° (ENE) 1,867 6.3 -8.9°
Sets 06:30:32 0° 68° (ENE) 2,767 7.3 -8.6°
